軌道要素
Epoch 2014 Oct. 30.0 TT = JDT 2456960.5
T 2014 Nov. 1.59560 TT MPCW
q 2.6796896 (2000.0) P Q
n 0.13296647 Peri. 21.94768 -0.57398738 +0.81683044
a 3.8016717 Node 213.10340 -0.76612041 -0.56055230
e 0.2951286 Incl. 6.06199 -0.28913318 -0.13626870
P 7.41
From 88 observations 1992 Mar. 30-1999 June 9, mean residual 0".8.
|